| time (UTC) | temp F | wind direction | speed MPH | gust MPH | rain 1hr in | rain 24hr in | rain mn in | humidity % | barometer mb |
| 20260904152038 | 84 | 312 | 0.0 | 2.0 | 0.00 | 0.00 | 0.00 | 66 | |
| 20260904151533 | 84 | 326 | 0.0 | 1.0 | 0.00 | 0.00 | 0.00 | 66 | |
| 20260904151026 | 84 | 331 | 1.0 | 2.0 | 0.00 | 0.00 | 0.00 | 66 | |
| 20260904150520 | 84 | 316 | 1.0 | 2.0 | 0.00 | 0.00 | 0.00 | 66 | |
| 20260904150015 | 84 | 332 | 0.0 | 2.0 | 0.00 | 0.00 | 0.00 | 66 | |
| 20260904145510 | 83 | 338 | 1.0 | 2.0 | 0.00 | 0.00 | 0.00 | 67 | |
| 20260904145005 | 83 | 326 | 0.0 | 2.0 | 0.00 | 0.00 | 0.00 | 68 | |
| 20260904144501 | 82 | 334 | 2.0 | 3.0 | 0.00 | 0.00 | 0.00 | 69 | |
| 20260904143956 | 82 | 320 | 1.0 | 2.0 | 0.00 | 0.00 | 0.00 | 69 | |
| 20260904143452 | 82 | 351 | 1.0 | 1.0 | 0.00 | 0.00 | 0.00 | 69 | |
| 20260904142949 | 82 | 307 | 1.0 | 1.0 | 0.00 | 0.00 | 0.00 | 69 | |
| 20260904142445 | 82 | 339 | 1.0 | 3.0 | 0.00 | 0.00 | 0.00 | 69 | |
| 20260904141944 | 82 | 334 | 0.0 | 5.0 | 0.00 | 0.00 | 0.00 | 70 | |
| 20260904141439 | 82 | 333 | 1.0 | 5.0 | 0.00 | 0.00 | 0.00 | 69 | |
| 20260904140936 | 81 | 337 | 1.0 | 1.0 | 0.00 | 0.00 | 0.00 | 69 | |
| 20260904140436 | 81 | 352 | 1.0 | 2.0 | 0.00 | 0.00 | 0.00 | 69 | |
| 20260904135935 | 80 | 326 | 0.0 | 5.0 | 0.00 | 0.00 | 0.00 | 70 | |
| 20260904135434 | 80 | 322 | 0.0 | 0.0 | 0.00 | 0.00 | 0.00 | 71 | |
| 20260904134931 | 80 | 334 | 0.0 | 0.0 | 0.00 | 0.00 | 0.00 | 71 | |
| 20260904134431 | 80 | 330 | 0.0 | 2.0 | 0.00 | 0.00 | 0.00 | 72 | |
| 20260904133925 | 80 | 326 | 1.0 | 1.0 | 0.00 | 0.00 | 0.00 | 72 | |
| 20260904133420 | 79 | 320 | 0.0 | 1.0 | 0.00 | 0.00 | 0.00 | 73 | |
| 20260904132916 | 79 | 334 | 1.0 | 3.0 | 0.00 | 0.00 | 0.00 | 73 | |
| 20260904132411 | 78 | 345 | 1.0 | 3.0 | 0.00 | 0.00 | 0.00 | 74 | |
| 20260904131910 | 78 | 328 | 1.0 | 3.0 | 0.00 | 0.00 | 0.00 | 74 | |
| 20260904131406 | 78 | 339 | 2.0 | 3.0 | 0.00 | 0.00 | 0.00 | 75 | |
| 20260904130901 | 77 | 337 | 2.0 | 2.0 | 0.00 | 0.00 | 0.00 | 75 | |
| 20260904130400 | 77 | 327 | 1.0 | 2.0 | 0.00 | 0.00 | 0.00 | 75 | |
| 20260904125855 | 77 | 330 | 0.0 | 1.0 | 0.00 | 0.00 | 0.00 | 75 | |
| 20260904125352 | 77 | 326 | 0.0 | 2.0 | 0.00 | 0.00 | 0.00 | 75 | |
| 20260904124850 | 78 | 319 | 2.0 | 2.0 | 0.00 | 0.00 | 0.00 | 74 | |
| 20260904124348 | 77 | 327 | 0.0 | 0.0 | 0.00 | 0.00 | 0.00 | 76 | |
| 20260904123843 | 75 | 323 | 0.0 | 1.0 | 0.00 | 0.00 | 0.00 | 78 | |
| 20260904123337 | 75 | 328 | 1.0 | 1.0 | 0.00 | 0.00 | 0.00 | 78 | |
| 20260904122832 | 75 | 324 | 0.0 | 0.0 | 0.00 | 0.00 | 0.00 | 79 | |
| 20260904122327 | 75 | 326 | 0.0 | 1.0 | 0.00 | 0.00 | 0.00 | 79 | |
| 20260904121822 | 75 | 328 | 0.0 | 0.0 | 0.00 | 0.00 | 0.00 | 79 | |
| 20260904121318 | 75 | 326 | 0.0 | 1.0 | 0.00 | 0.00 | 0.00 | 79 | |
| 20260904120815 | 74 | 326 | 0.0 | 0.0 | 0.00 | 0.00 | 0.00 | 79 | |
| 20260904120310 | 74 | 332 | 0.0 | 0.0 | 0.00 | 0.00 | 0.00 | 80 | |
| 20260904115805 | 74 | 323 | 0.0 | 1.0 | 0.00 | 0.00 | 0.00 | 79 | |
| 20260904115259 | 75 | 328 | 1.0 | 1.0 | 0.00 | 0.00 | 0.00 | 79 | |
| 20260904114754 | 75 | 327 | 0.0 | 1.0 | 0.00 | 0.00 | 0.00 | 79 | |
| 20260904114254 | 75 | 329 | 0.0 | 1.0 | 0.00 | 0.00 | 0.00 | 79 | |
| 20260904113750 | 75 | 330 | 2.0 | 2.0 | 0.00 | 0.00 | 0.00 | 79 | |
| 20260904113248 | 75 | 333 | 1.0 | 2.0 | 0.00 | 0.00 | 0.00 | 79 | |
| 20260904112743 | 75 | 329 | 0.0 | 0.0 | 0.00 | 0.00 | 0.00 | 79 | |
| 20260904112239 | 75 | 332 | 1.0 | 2.0 | 0.00 | 0.00 | 0.00 | 79 | |
| 20260904111735 | 75 | 328 | 0.0 | 0.0 | 0.00 | 0.00 | 0.00 | 79 | |
| 20260904111231 | 75 | 328 | 0.0 | 0.0 | 0.00 | 0.00 | 0.00 | 78 | |
| 20260904110726 | 75 | 328 | 0.0 | 0.0 | 0.00 | 0.00 | 0.00 | 78 | |
| 20260904110225 | 75 | 328 | 0.0 | 0.0 | 0.00 | 0.00 | 0.00 | 78 | |
| 20260904105720 | 75 | 325 | 0.0 | 1.0 | 0.00 | 0.00 | 0.00 | 78 | |
| 20260904105215 | 75 | 328 | 1.0 | 1.0 | 0.00 | 0.00 | 0.00 | 78 | |
| 20260904104710 | 75 | 329 | 1.0 | 1.0 | 0.00 | 0.00 | 0.00 | 78 | |
| 20260904104206 | 75 | 328 | 0.0 | 1.0 | 0.00 | 0.00 | 0.00 | 77 | |
| 20260904103703 | 75 | 328 | 0.0 | 1.0 | 0.00 | 0.00 | 0.00 | 77 | |
| 20260904103157 | 75 | 330 | 0.0 | 1.0 | 0.00 | 0.00 | 0.00 | 77 | |
| 20260904102653 | 76 | 334 | 0.0 | 0.0 | 0.00 | 0.00 | 0.00 | 77 | |
| 20260904102148 | 76 | 337 | 1.0 | 1.0 | 0.00 | 0.00 | 0.00 | 77 | |
| 20260904101645 | 76 | 326 | 0.0 | 1.0 | 0.00 | 0.00 | 0.00 | 77 | |
| 20260904101140 | 76 | 330 | 1.0 | 2.0 | 0.00 | 0.00 | 0.00 | 77 | |
| 20260904100636 | 76 | 337 | 1.0 | 1.0 | 0.00 | 0.00 | 0.00 | 77 | |
| 20260904100130 | 76 | 325 | 0.0 | 0.0 | 0.00 | 0.00 | 0.00 | 77 | |
| 20260904095625 | 76 | 326 | 0.0 | 0.0 | 0.00 | 0.00 | 0.00 | 76 | |
| 20260904095126 | 76 | 326 | 0.0 | 1.0 | 0.00 | 0.00 | 0.00 | 76 | |
| 20260904094621 | 76 | 325 | 0.0 | 1.0 | 0.00 | 0.00 | 0.00 | 76 | |
| 20260904094116 | 76 | 328 | 0.0 | 1.0 | 0.00 | 0.00 | 0.00 | 76 | |
| 20260904093613 | 76 | 329 | 0.0 | 0.0 | 0.00 | 0.00 | 0.00 | 75 | |
| 20260904093112 | 77 | 329 | 0.0 | 0.0 | 0.00 | 0.00 | 0.00 | 75 | |
| 20260904092609 | 77 | 325 | 0.0 | 1.0 | 0.00 | 0.00 | 0.00 | 74 | |
| 20260904092105 | 77 | 327 | 0.0 | 1.0 | 0.00 | 0.00 | 0.00 | 74 | |
| 20260904091601 | 78 | 330 | 0.0 | 1.0 | 0.00 | 0.00 | 0.00 | 73 | |
| 20260904091100 | 78 | 330 | 0.0 | 0.0 | 0.00 | 0.00 | 0.00 | 72 | |
| 20260904090556 | 78 | 325 | 0.0 | 1.0 | 0.00 | 0.00 | 0.00 | 72 | |
| 20260904090052 | 78 | 327 | 0.0 | 0.0 | 0.00 | 0.00 | 0.00 | 73 | |
| 20260904085552 | 78 | 324 | 0.0 | 0.0 | 0.00 | 0.00 | 0.00 | 72 | |
| 20260904085051 | 78 | 326 | 0.0 | 0.0 | 0.00 | 0.00 | 0.00 | 72 | |
| 20260904084547 | 78 | 326 | 0.0 | 0.0 | 0.00 | 0.00 | 0.00 | 72 | |
| 20260904084043 | 78 | 327 | 0.0 | 0.0 | 0.00 | 0.00 | 0.00 | 72 | |
| 20260904083539 | 78 | 325 | 0.0 | 0.0 | 0.00 | 0.00 | 0.00 | 72 | |
| 20260904083035 | 78 | 324 | 0.0 | 0.0 | 0.00 | 0.00 | 0.00 | 72 | |
| 20260904082530 | 78 | 328 | 0.0 | 0.0 | 0.00 | 0.00 | 0.00 | 73 | |
| 20260904082025 | 78 | 322 | 0.0 | 0.0 | 0.00 | 0.00 | 0.00 | 73 | |
| 20260904081520 | 78 | 324 | 0.0 | 0.0 | 0.00 | 0.00 | 0.00 | 73 | |
| 20260904081016 | 78 | 323 | 0.0 | 0.0 | 0.00 | 0.00 | 0.00 | 73 | |
| 20260904080511 | 78 | 324 | 0.0 | 0.0 | 0.00 | 0.00 | 0.00 | 73 | |
| 20260904080007 | 78 | 322 | 0.0 | 0.0 | 0.00 | 0.00 | 0.00 | 73 | |
| 20260904075503 | 78 | 321 | 0.0 | 0.0 | 0.00 | 0.00 | 0.00 | 72 | |
| 20260904075003 | 78 | 321 | 0.0 | 0.0 | 0.00 | 0.00 | 0.00 | 72 | |
| 20260904074457 | 78 | 322 | 0.0 | 0.0 | 0.00 | 0.00 | 0.00 | 71 | |
| 20260904073952 | 78 | 321 | 0.0 | 0.0 | 0.00 | 0.00 | 0.00 | 71 | |
| 20260904073447 | 79 | 321 | 0.0 | 0.0 | 0.00 | 0.00 | 0.00 | 71 | |
| 20260904072943 | 79 | 321 | 0.0 | 0.0 | 0.00 | 0.00 | 0.00 | 70 | |
| 20260904072439 | 79 | 322 | 0.0 | 0.0 | 0.00 | 0.00 | 0.00 | 70 | |
| 20260904071933 | 80 | 322 | 0.0 | 0.0 | 0.00 | 0.00 | 0.00 | 70 | |
| 20260904071429 | 80 | 324 | 0.0 | 0.0 | 0.00 | 0.00 | 0.00 | 69 | |
| 20260904070929 | 80 | 321 | 0.0 | 0.0 | 0.00 | 0.00 | 0.00 | 69 | |
| 20260904070427 | 80 | 325 | 0.0 | 0.0 | 0.00 | 0.00 | 0.00 | 68 | |
| 20260904065922 | 80 | 325 | 0.0 | 0.0 | 0.00 | 0.00 | 0.00 | 68 | |
| 20260904065419 | 80 | 324 | 0.0 | 0.0 | 0.00 | 0.00 | 0.00 | 68 | |
| 20260904064918 | 81 | 328 | 0.0 | 0.0 | 0.00 | 0.00 | 0.00 | 68 | |
| 20260904064415 | 81 | 321 | 0.0 | 0.0 | 0.00 | 0.00 | 0.00 | 67 | |
| 20260904063910 | 81 | 329 | 0.0 | 0.0 | 0.00 | 0.00 | 0.00 | 67 | |
| 20260904063407 | 81 | 325 | 0.0 | 0.0 | 0.00 | 0.00 | 0.00 | 66 | |
| 20260904062901 | 82 | 316 | 0.0 | 0.0 | 0.00 | 0.00 | 0.00 | 66 | |
| 20260904062357 | 82 | 329 | 0.0 | 1.0 | 0.00 | 0.00 | 0.00 | 66 | |
| 20260904061853 | 81 | 332 | 1.0 | 1.0 | 0.00 | 0.00 | 0.00 | 66 | |
| 20260904061349 | 81 | 324 | 0.0 | 1.0 | 0.00 | 0.00 | 0.00 | 67 | |
| 20260904060845 | 81 | 322 | 0.0 | 1.0 | 0.00 | 0.00 | 0.00 | 66 | |
| 20260904060341 | 82 | 326 | 0.0 | 0.0 | 0.00 | 0.00 | 0.00 | 65 | |
| 20260904055836 | 82 | 324 | 0.0 | 1.0 | 0.00 | 0.00 | 0.00 | 65 | |
| 20260904055331 | 82 | 325 | 0.0 | 2.0 | 0.00 | 0.00 | 0.00 | 65 | |
| 20260904054826 | 82 | 333 | 1.0 | 1.0 | 0.00 | 0.00 | 0.00 | 65 | |
| 20260904054322 | 82 | 327 | 0.0 | 1.0 | 0.00 | 0.00 | 0.00 | 64 | |
| 20260904053818 | 82 | 329 | 0.0 | 0.0 | 0.00 | 0.00 | 0.00 | 64 | |
| 20260904053317 | 82 | 325 | 0.0 | 0.0 | 0.00 | 0.00 | 0.00 | 64 | |
| 20260904052813 | 82 | 328 | 0.0 | 0.0 | 0.00 | 0.00 | 0.00 | 64 | |
| 20260904052309 | 82 | 325 | 0.0 | 1.0 | 0.00 | 0.00 | 0.00 | 64 | |
| 20260904051806 | 82 | 325 | 0.0 | 0.0 | 0.00 | 0.00 | 0.00 | 63 | |
| 20260904051301 | 82 | 325 | 0.0 | 0.0 | 0.00 | 0.00 | 0.00 | 63 | |
| 20260904050756 | 82 | 322 | 0.0 | 0.0 | 0.00 | 0.00 | 0.00 | 63 | |
| 20260904050252 | 82 | 329 | 0.0 | 0.0 | 0.00 | 0.00 | 0.00 | 63 | |
| 20260904045747 | 82 | 324 | 0.0 | 1.0 | 0.00 | 0.00 | 0.00 | 63 | |
| 20260904045241 | 83 | 322 | 0.0 | 0.0 | 0.00 | 0.00 | 0.00 | 62 | |
| 20260904044736 | 83 | 326 | 0.0 | 1.0 | 0.00 | 0.00 | 0.00 | 62 | |
| 20260904044233 | 83 | 329 | 1.0 | 1.0 | 0.00 | 0.00 | 0.00 | 61 | |
| 20260904043729 | 83 | 323 | 0.0 | 1.0 | 0.00 | 0.00 | 0.00 | 61 | |
| 20260904043225 | 83 | 325 | 0.0 | 1.0 | 0.00 | 0.00 | 0.00 | 61 | |
| 20260904042720 | 84 | 321 | 0.0 | 0.0 | 0.00 | 0.00 | 0.00 | 61 | |
| 20260904042217 | 83 | 326 | 0.0 | 1.0 | 0.00 | 0.00 | 0.00 | 61 | |
| 20260904041716 | 83 | 324 | 0.0 | 1.0 | 0.00 | 0.00 | 0.00 | 61 | |
| 20260904041212 | 84 | 323 | 0.0 | 0.0 | 0.00 | 0.00 | 0.00 | 61 | |
| 20260904040708 | 84 | 332 | 1.0 | 1.0 | 0.00 | 0.00 | 0.00 | 59 | |
| 20260904040204 | 85 | 323 | 0.0 | 0.0 | 0.00 | 0.00 | 0.00 | 59 | |
| 20260904035659 | 85 | 324 | 0.0 | 0.0 | 0.00 | 0.00 | 0.00 | 58 | |
| 20260904035154 | 85 | 329 | 1.0 | 1.0 | 0.00 | 0.00 | 0.00 | 58 | |
| 20260904034653 | 85 | 330 | 0.0 | 0.0 | 0.00 | 0.00 | 0.00 | 57 | |
| 20260904034149 | 86 | 324 | 1.0 | 1.0 | 0.00 | 0.00 | 0.00 | 57 | |
| 20260904033645 | 86 | 327 | 1.0 | 3.0 | 0.00 | 0.00 | 0.00 | 57 | |
| 20260904033142 | 86 | 330 | 0.0 | 1.0 | 0.00 | 0.00 | 0.00 | 57 | |
| 20260904032637 | 86 | 326 | 1.0 | 2.0 | 0.00 | 0.00 | 0.00 | 57 | |
| 20260904032136 | 86 | 328 | 1.0 | 1.0 | 0.00 | 0.00 | 0.00 | 57 | |
| 20260904031636 | 86 | 330 | 0.0 | 1.0 | 0.00 | 0.00 | 0.00 | 57 | |
| 20260904031132 | 86 | 325 | 1.0 | 3.0 | 0.00 | 0.00 | 0.00 | 56 | |
| 20260904030627 | 86 | 334 | 1.0 | 1.0 | 0.00 | 0.00 | 0.00 | 56 | |
| 20260904030122 | 86 | 324 | 0.0 | 0.0 | 0.00 | 0.00 | 0.00 | 56 | |
| 20260904025619 | 86 | 331 | 0.0 | 2.0 | 0.00 | 0.00 | 0.00 | 56 | |
| 20260904025113 | 87 | 326 | 1.0 | 2.0 | 0.00 | 0.00 | 0.00 | 56 | |
| 20260904024608 | 87 | 331 | 1.0 | 1.0 | 0.00 | 0.00 | 0.00 | 56 | |
| 20260904024104 | 87 | 328 | 1.0 | 1.0 | 0.00 | 0.00 | 0.00 | 56 | |
| 20260904023600 | 87 | 323 | 1.0 | 1.0 | 0.00 | 0.00 | 0.00 | 56 | |
| 20260904023056 | 87 | 337 | 1.0 | 1.0 | 0.00 | 0.00 | 0.00 | 56 | |
| 20260904022556 | 87 | 324 | 1.0 | 1.0 | 0.00 | 0.00 | 0.00 | 56 | |
| 20260904022053 | 87 | 331 | 1.0 | 1.0 | 0.00 | 0.00 | 0.00 | 56 | |
| 20260904021548 | 87 | 323 | 0.0 | 1.0 | 0.00 | 0.00 | 0.00 | 57 | |
| 20260904021043 | 87 | 328 | 0.0 | 0.0 | 0.00 | 0.00 | 0.00 | 56 | |
| 20260904020538 | 87 | 331 | 1.0 | 2.0 | 0.00 | 0.00 | 0.00 | 55 | |
| 20260904020033 | 87 | 331 | 0.0 | 1.0 | 0.00 | 0.00 | 0.00 | 56 | |
| 20260904015527 | 87 | 332 | 1.0 | 1.0 | 0.00 | 0.00 | 0.00 | 56 | |
| 20260904015026 | 87 | 329 | 1.0 | 1.0 | 0.00 | 0.00 | 0.00 | 55 | |
| 20260904014520 | 87 | 329 | 0.0 | 0.0 | 0.00 | 0.00 | 0.00 | 56 | |
| 20260904014016 | 88 | 324 | 0.0 | 1.0 | 0.00 | 0.00 | 0.00 | 55 | |
| 20260904013512 | 88 | 322 | 0.0 | 0.0 | 0.00 | 0.00 | 0.00 | 55 | |
| 20260904013009 | 88 | 324 | 0.0 | 0.0 | 0.00 | 0.00 | 0.00 | 54 | |
| 20260904012509 | 88 | 324 | 0.0 | 0.0 | 0.00 | 0.00 | 0.00 | 54 | |
| 20260904012002 | 88 | 323 | 0.0 | 1.0 | 0.00 | 0.00 | 0.00 | 54 | |
| 20260904011457 | 89 | 322 | 1.0 | 2.0 | 0.00 | 0.00 | 0.00 | 53 | |
| 20260904010952 | 89 | 325 | 0.0 | 1.0 | 0.00 | 0.00 | 0.00 | 53 | |
| 20260904010449 | 89 | 324 | 0.0 | 1.0 | 0.00 | 0.00 | 0.00 | 53 | |
| 20260904005949 | 89 | 323 | 0.0 | 1.0 | 0.00 | 0.00 | 0.00 | 52 | |
| 20260904005445 | 90 | 323 | 0.0 | 1.0 | 0.00 | 0.00 | 0.00 | 51 | |
| 20260904004939 | 91 | 325 | 0.0 | 1.0 | 0.00 | 0.00 | 0.00 | 50 | |
| 20260904004436 | 91 | 322 | 1.0 | 1.0 | 0.00 | 0.00 | 0.00 | 50 | |
| 20260904003935 | 91 | 324 | 1.0 | 1.0 | 0.00 | 0.00 | 0.00 | 49 | |
| 20260904003431 | 92 | 322 | 0.0 | 0.0 | 0.00 | 0.00 | 0.00 | 49 | |
| 20260904002926 | 92 | 326 | 1.0 | 1.0 | 0.00 | 0.00 | 0.00 | 48 | |
| 20260904002423 | 92 | 328 | 1.0 | 2.0 | 0.00 | 0.00 | 0.00 | 47 | |
| 20260904001921 | 93 | 329 | 1.0 | 2.0 | 0.00 | 0.00 | 0.00 | 48 | |
| 20260904001417 | 93 | 325 | 2.0 | 2.0 | 0.00 | 0.00 | 0.00 | 47 | |
| 20260904000912 | 93 | 350 | 0.0 | 2.0 | 0.00 | 0.00 | 0.00 | 47 | |
| 20260904000412 | 93 | 339 | 1.0 | 5.0 | 0.00 | 0.00 | 0.00 | 47 | |
| 20260903235906 | 93 | 337 | 1.0 | 3.0 | 0.00 | 0.00 | 0.00 | 47 | |
| 20260903235403 | 93 | 345 | 3.0 | 3.0 | 0.00 | 0.00 | 0.00 | 47 | |
| 20260903234902 | 94 | 332 | 1.0 | 2.0 | 0.00 | 0.00 | 0.00 | 46 | |
| 20260903234358 | 94 | 332 | 2.0 | 3.0 | 0.00 | 0.00 | 0.00 | 46 | |
| 20260903233854 | 94 | 330 | 2.0 | 2.0 | 0.00 | 0.00 | 0.00 | 46 | |
| 20260903233350 | 94 | 316 | 1.0 | 2.0 | 0.00 | 0.00 | 0.00 | 45 | |
| 20260903232849 | 94 | 334 | 2.0 | 3.0 | 0.00 | 0.00 | 0.00 | 45 | |
| 20260903232345 | 94 | 313 | 1.0 | 1.0 | 0.00 | 0.00 | 0.00 | 45 | |
| 20260903231844 | 94 | 324 | 3.0 | 3.0 | 0.00 | 0.00 | 0.00 | 44 | |
| 20260903231339 | 94 | 338 | 1.0 | 5.0 | 0.00 | 0.00 | 0.00 | 44 | |
| 20260903230835 | 95 | 340 | 1.0 | 2.0 | 0.00 | 0.00 | 0.00 | 44 | |
| 20260903230330 | 95 | 327 | 1.0 | 2.0 | 0.00 | 0.00 | 0.00 | 44 | |
| 20260903225826 | 95 | 324 | 1.0 | 3.0 | 0.00 | 0.00 | 0.00 | 44 | |
| 20260903225322 | 95 | 341 | 1.0 | 2.0 | 0.00 | 0.00 | 0.00 | 44 | |
| 20260903224818 | 95 | 353 | 2.0 | 2.0 | 0.00 | 0.00 | 0.00 | 44 | |
| 20260903224314 | 95 | 328 | 1.0 | 3.0 | 0.00 | 0.00 | 0.00 | 44 | |
| 20260903223810 | 95 | 325 | 1.0 | 5.0 | 0.00 | 0.00 | 0.00 | 44 | |
| 20260903223309 | 95 | 344 | 3.0 | 3.0 | 0.00 | 0.00 | 0.00 | 43 | |
| 20260903222803 | 95 | 336 | 2.0 | 5.0 | 0.00 | 0.00 | 0.00 | 43 | |
| 20260903222305 | 95 | 321 | 1.0 | 3.0 | 0.00 | 0.00 | 0.00 | 44 | |
| 20260903221757 | 95 | 333 | 2.0 | 2.0 | 0.00 | 0.00 | 0.00 | 44 | |
| 20260903221256 | 95 | 349 | 5.0 | 7.0 | 0.00 | 0.00 | 0.00 | 43 | |
| 20260903220755 | 95 | 331 | 3.0 | 5.0 | 0.00 | 0.00 | 0.00 | 43 | |
| 20260903220249 | 95 | 325 | 1.0 | 5.0 | 0.00 | 0.00 | 0.00 | 44 | |
| 20260903215747 | 95 | 328 | 3.0 | 6.0 | 0.00 | 0.00 | 0.00 | 43 | |
| 20260903215244 | 95 | 328 | 2.0 | 3.0 | 0.00 | 0.00 | 0.00 | 43 | |
| 20260903214741 | 95 | 336 | 2.0 | 3.0 | 0.00 | 0.00 | 0.00 | 44 | |
| 20260903214238 | 95 | 318 | 3.0 | 6.0 | 0.00 | 0.00 | 0.00 | 44 | |
| 20260903213732 | 95 | 326 | 2.0 | 3.0 | 0.00 | 0.00 | 0.00 | 43 | |
| 20260903213228 | 95 | 306 | 3.0 | 5.0 | 0.00 | 0.00 | 0.00 | 44 | |
| 20260903212724 | 95 | 4 | 4.0 | 5.0 | 0.00 | 0.00 | 0.00 | 44 | |
| 20260903212221 | 95 | 321 | 2.0 | 2.0 | 0.00 | 0.00 | 0.00 | 45 | |
| 20260903211719 | 95 | 340 | 2.0 | 5.0 | 0.00 | 0.00 | 0.00 | 45 | |
| 20260903211216 | 95 | 320 | 1.0 | 1.0 | 0.00 | 0.00 | 0.00 | 46 | |
| 20260903210712 | 95 | 324 | 1.0 | 2.0 | 0.00 | 0.00 | 0.00 | 44 | |
| 20260903210207 | 95 | 325 | 0.0 | 1.0 | 0.00 | 0.00 | 0.00 | 45 | |
| 20260903205707 | 95 | 324 | 1.0 | 3.0 | 0.00 | 0.00 | 0.00 | 45 | |
| 20260903205206 | 95 | 337 | 2.0 | 3.0 | 0.00 | 0.00 | 0.00 | 46 | |
| 20260903204702 | 95 | 2 | 1.0 | 7.0 | 0.00 | 0.00 | 0.00 | 45 | |
| 20260903204158 | 95 | 324 | 2.0 | 3.0 | 0.00 | 0.00 | 0.00 | 45 | |
| 20260903203653 | 95 | 352 | 3.0 | 7.0 | 0.00 | 0.00 | 0.00 | 46 | |
| 20260903203148 | 95 | 348 | 1.0 | 3.0 | 0.00 | 0.00 | 0.00 | 45 | |
| 20260903202643 | 95 | 317 | 2.0 | 3.0 | 0.00 | 0.00 | 0.00 | 46 | |
| 20260903202138 | 95 | 351 | 3.0 | 5.0 | 0.00 | 0.00 | 0.00 | 46 | |
| 20260903201632 | 94 | 3 | 3.0 | 7.0 | 0.00 | 0.00 | 0.00 | 46 | |
| 20260903201132 | 94 | 320 | 2.0 | 7.0 | 0.00 | 0.00 | 0.00 | 46 | |
| 20260903200628 | 95 | 328 | 2.0 | 5.0 | 0.00 | 0.00 | 0.00 | 46 | |
| 20260903200122 | 94 | 329 | 1.0 | 2.0 | 0.00 | 0.00 | 0.00 | 47 | |
| 20260903195618 | 94 | 337 | 3.0 | 5.0 | 0.00 | 0.00 | 0.00 | 46 | |
| 20260903195113 | 94 | 323 | 1.0 | 3.0 | 0.00 | 0.00 | 0.00 | 48 | |
| 20260903194608 | 94 | 325 | 1.0 | 7.0 | 0.00 | 0.00 | 0.00 | 47 | |
| 20260903194103 | 94 | 350 | 2.0 | 2.0 | 0.00 | 0.00 | 0.00 | 48 | |
| 20260903193559 | 94 | 4 | 4.0 | 7.0 | 0.00 | 0.00 | 0.00 | 47 | |
| 20260903193055 | 94 | 336 | 1.0 | 3.0 | 0.00 | 0.00 | 0.00 | 46 | |
| 20260903192551 | 94 | 323 | 1.0 | 5.0 | 0.00 | 0.00 | 0.00 | 48 | |
| 20260903192046 | 94 | 330 | 3.0 | 3.0 | 0.00 | 0.00 | 0.00 | 48 | |
| 20260903191543 | 94 | 298 | 2.0 | 2.0 | 0.00 | 0.00 | 0.00 | 50 | |
| 20260903191043 | 94 | 348 | 2.0 | 5.0 | 0.00 | 0.00 | 0.00 | 48 | |
| 20260903190542 | 94 | 329 | 3.0 | 5.0 | 0.00 | 0.00 | 0.00 | 49 | |
| 20260903190042 | 93 | 342 | 2.0 | 8.0 | 0.00 | 0.00 | 0.00 | 49 | |
| 20260903185537 | 93 | 340 | 3.0 | 6.0 | 0.00 | 0.00 | 0.00 | 50 | |
| 20260903185032 | 93 | 311 | 3.0 | 7.0 | 0.00 | 0.00 | 0.00 | 49 | |
| 20260903184529 | 93 | 315 | 1.0 | 6.0 | 0.00 | 0.00 | 0.00 | 51 | |
| 20260903184023 | 93 | 340 | 2.0 | 3.0 | 0.00 | 0.00 | 0.00 | 50 | |
| 20260903183523 | 93 | 359 | 5.0 | 7.0 | 0.00 | 0.00 | 0.00 | 50 | |
| 20260903183018 | 93 | 324 | 3.0 | 6.0 | 0.00 | 0.00 | 0.00 | 51 | |
| 20260903182516 | 93 | 329 | 2.0 | 6.0 | 0.00 | 0.00 | 0.00 | 51 | |
| 20260903182013 | 92 | 312 | 1.0 | 3.0 | 0.00 | 0.00 | 0.00 | 53 | |
| 20260903181506 | 92 | 345 | 2.0 | 5.0 | 0.00 | 0.00 | 0.00 | 51 | |
| 20260903181005 | 92 | 322 | 0.0 | 5.0 | 0.00 | 0.00 | 0.00 | 53 | |
| 20260903180501 | 92 | 300 | 2.0 | 3.0 | 0.00 | 0.00 | 0.00 | 54 | |
| 20260903180000 | 92 | 330 | 1.0 | 5.0 | 0.00 | 0.00 | 0.00 | 53 | |
| 20260903175454 | 91 | 333 | 3.0 | 5.0 | 0.00 | 0.00 | 0.00 | 54 | |
| 20260903174953 | 91 | 4 | 1.0 | 5.0 | 0.00 | 0.00 | 0.00 | 54 | |
| 20260903174449 | 91 | 351 | 3.0 | 6.0 | 0.00 | 0.00 | 0.00 | 54 | |
| 20260903173948 | 91 | 331 | 1.0 | 3.0 | 0.00 | 0.00 | 0.00 | 55 | |
| 20260903173444 | 91 | 325 | 2.0 | 5.0 | 0.00 | 0.00 | 0.00 | 53 | |
| 20260903172939 | 90 | 327 | 0.0 | 3.0 | 0.00 | 0.00 | 0.00 | 57 | |
| 20260903172434 | 91 | 348 | 3.0 | 6.0 | 0.00 | 0.00 | 0.00 | 55 | |
| 20260903171930 | 91 | 345 | 2.0 | 3.0 | 0.00 | 0.00 | 0.00 | 54 | |
| 20260903171425 | 91 | 325 | 3.0 | 5.0 | 0.00 | 0.00 | 0.00 | 53 | |
| 20260903170925 | 91 | 358 | 2.0 | 3.0 | 0.00 | 0.00 | 0.00 | 53 | |
| 20260903170419 | 90 | 316 | 1.0 | 2.0 | 0.00 | 0.00 | 0.00 | 55 | |
| 20260903165918 | 90 | 330 | 1.0 | 5.0 | 0.00 | 0.00 | 0.00 | 54 | |
| 20260903165413 | 90 | 296 | 2.0 | 2.0 | 0.00 | 0.00 | 0.00 | 56 | |
| 20260903164907 | 90 | 348 | 1.0 | 2.0 | 0.00 | 0.00 | 0.00 | 55 | |
| 20260903164402 | 90 | 333 | 3.0 | 5.0 | 0.00 | 0.00 | 0.00 | 56 | |
| 20260903163901 | 90 | 343 | 2.0 | 2.0 | 0.00 | 0.00 | 0.00 | 56 | |
| 20260903163358 | 90 | 332 | 2.0 | 5.0 | 0.00 | 0.00 | 0.00 | 56 | |
| 20260903162854 | 89 | 322 | 1.0 | 3.0 | 0.00 | 0.00 | 0.00 | 56 | |
| 20260903162350 | 89 | 325 | 0.0 | 3.0 | 0.00 | 0.00 | 0.00 | 57 | |
| 20260903161846 | 89 | 308 | 1.0 | 5.0 | 0.00 | 0.00 | 0.00 | 58 | |
| 20260903161341 | 89 | 321 | 2.0 | 3.0 | 0.00 | 0.00 | 0.00 | 57 | |
| 20260903160837 | 88 | 328 | 1.0 | 3.0 | 0.00 | 0.00 | 0.00 | 56 | |
| 20260903160335 | 89 | 330 | 1.0 | 6.0 | 0.00 | 0.00 | 0.00 | 57 | |
| 20260903155834 | 88 | 339 | 1.0 | 1.0 | 0.00 | 0.00 | 0.00 | 59 | |
| 20260903155330 | 87 | 329 | 0.0 | 2.0 | 0.00 | 0.00 | 0.00 | 59 | |
| 20260903154825 | 87 | 326 | 1.0 | 2.0 | 0.00 | 0.00 | 0.00 | 58 | |
| 20260903154321 | 87 | 334 | 2.0 | 6.0 | 0.00 | 0.00 | 0.00 | 58 | |
| 20260903153816 | 87 | 331 | 1.0 | 1.0 | 0.00 | 0.00 | 0.00 | 60 | |
| 20260903153312 | 87 | 327 | 1.0 | 2.0 | 0.00 | 0.00 | 0.00 | 60 | |
| 20260903152808 | 87 | 322 | 0.0 | 1.0 | 0.00 | 0.00 | 0.00 | 61 | |
| 20260903152306 | 86 | 323 | 1.0 | 5.0 | 0.00 | 0.00 | 0.00 | 61 |